This demonstration page uses our WeatherBlox Daily Observations layout. Learn more.

Left ArrowRight Arrow

44.31136, -96.79839

Hourly Observations for August 29, 2018

Temp ( °F °C ) Dew Point ( °F °C ) Humidity (%) Winds ( mph kmh ) Pressure ( in mb ) Visibility ( mi km ) Precip ( " mm )
12:56 am 00:56 Clear with Mist and Fog 49 9.4 48 8.9 97 97 WNW 3 6 30.12 1020 4 6 0.00 0.00
1:01 am 01:01 Mostly Clear with Mist and Fog 48 9 48 9 100 100 Calm 30.12 1020 2 3 0.00 0.00
1:12 am 01:12 Clear 48 9 48 9 100 100 Calm 30.12 1020 8 13 0.00 0.00
1:56 am 01:56 Clear 49 9.4 48 8.9 97 97 Calm 30.13 1020 10 16 0.00 0.00
2:40 am 02:40 Partly Cloudy with Mist and Fog 46 8 46 8 100 100 Calm 30.12 1020 3 4 0.00 0.00
2:48 am 02:48 Mostly Cloudy with Mist and Fog 46 8 46 8 100 100 Calm 30.12 1020 3 5 0.00 0.00
2:56 am 02:56 Mostly Cloudy with Mist and Fog 47 8.3 47 8.3 100 100 Calm 30.13 1020 2 3 0.00 0.00
3:09 am 03:09 Mostly Cloudy with Mist and Fog 46 8 46 8 100 100 Calm 30.12 1020 3 5 0.00 0.00
3:24 am 03:24 Partly Cloudy with Mist and Fog 48 9 46 8 94 94 Calm 30.12 1020 5 8 0.00 0.00
3:33 am 03:33 Mostly Clear with Mist and Fog 48 9 46 8 94 94 Calm 30.12 1020 2 3 0.00 0.00
3:42 am 03:42 Clear with Mist and Fog 48 9 48 9 100 100 Calm 30.12 1020 4 6 0.00 0.00
3:56 am 03:56 Clear 48 8.9 48 8.9 100 100 Calm 30.14 1021 10 16 0.00 0.00
4:16 am 04:16 Partly Cloudy with Mist and Fog 48 9 48 9 100 100 Calm 30.12 1020 3 5 0.00 0.00
4:20 am 04:20 Mostly Cloudy with Mist and Fog 46 8 46 8 100 100 S 3 6 30.12 1020 3 5 0.00 0.00
4:23 am 04:23 Mostly Cloudy with Mist and Fog 46 8 46 8 100 100 SSW 3 6 30.12 1020 2 2 0.00 0.00
4:34 am 04:34 Mostly Cloudy with Mist and Fog 48 9 46 8 94 94 Calm 30.12 1020 1 2 0.00 0.00
4:37 am 04:37 Mostly Cloudy with Mist and Fog 46 8 46 8 100 100 Calm 30.12 1020 3 5 0.00 0.00
4:56 am 04:56 Mostly Clear 48 8.9 48 8.9 100 100 E 3 6 30.14 1021 10 16 0.00 0.00
5:53 am 05:53 Mostly Cloudy with Mist and Fog 46 8 45 7 93 93 S 3 6 30.15 1021 3 4 0.00 0.00
6:00 am 06:00 Mostly Cloudy with Fog 46 8 46 8 100 100 Calm 30.15 1021 1 1 0.00 0.00
6:09 am 06:09 Cloudy with Fog 46 8 46 8 100 100 Calm 30.15 1021 0 0 0.00 0.00
6:19 am 06:19 Cloudy with Mist and Fog 46 8 46 8 100 100 Calm 30.15 1021 1 1 0.00 0.00
6:23 am 06:23 Cloudy with Mist and Fog 46 8 46 8 100 100 Calm 30.15 1021 1 2 0.00 0.00
6:32 am 06:32 Cloudy with Mist and Fog 46 8 46 8 100 100 Calm 30.15 1021 2 3 0.00 0.00
6:37 am 06:37 Cloudy with Mist and Fog 46 8 46 8 100 100 Calm 30.15 1021 1 2 0.00 0.00
6:39 am 06:39 Cloudy with Fog 46 8 46 8 100 100 S 3 6 30.15 1021 1 1 0.00 0.00
6:56 am 06:56 Cloudy with Fog 46 7.8 46 7.8 100 100 Calm 30.18 1022 0 0 0.00 0.00
7:01 am 07:01 Mostly Cloudy with Mist and Fog 46 8 46 8 100 100 S 3 6 30.15 1021 1 1 0.00 0.00
7:04 am 07:04 Mostly Cloudy with Mist and Fog 46 8 46 8 100 100 S 3 6 30.15 1021 1 2 0.00 0.00
7:12 am 07:12 Mostly Cloudy with Mist and Fog 48 9 46 8 94 94 S 5 7 30.15 1021 3 4 0.00 0.00
7:28 am 07:28 Partly Cloudy 48 9 48 9 100 100 undefined N/A 30.15 1021 10 16 0.00 0.00
7:56 am 07:56 Mostly Cloudy 50 10 50 10 100 100 undefined N/A 30.19 1022 10 16 0.00 0.00
8:56 am 08:56 Mostly Sunny 54 12.2 52 11.1 93 93 SSW 6 9 30.19 1022 10 16 0.00 0.00
9:56 am 09:56 Sunny 59 15 54 12.2 83 83 SW 7 11 30.19 1022 10 16 0.00 0.00
10:56 am 10:56 Sunny 63 17.2 55 12.8 76 76 SW 6 9 30.19 1022 10 16 0.00 0.00
11:56 am 11:56 Sunny 67 19.4 55 12.8 66 66 SW 9 15 30.18 1022 10 16 0.00 0.00
12:56 pm 12:56 Sunny 68 20 54 12.2 61 61 S 5 7 30.16 1022 10 16 0.00 0.00
1:56 pm 13:56 Mostly Sunny 70 21.1 54 12.2 57 57 WSW 6 9 30.15 1021 10 16 0.00 0.00
2:56 pm 14:56 Cloudy 72 22.2 55 12.8 55 55 SW 10 17 30.14 1021 10 16 0.00 0.00
3:56 pm 15:56 Mostly Sunny 71 21.7 54 12.2 55 55 SSW 5 7 30.13 1020 10 16 0.00 0.00
4:56 pm 16:56 Partly Cloudy 71 21.7 55 12.8 57 57 S 7 11 30.13 1020 10 16 0.00 0.00
5:56 pm 17:56 Partly Cloudy 71 21.7 54 12.2 55 55 S 7 11 30.13 1020 10 16 0.00 0.00
6:56 pm 18:56 Mostly Cloudy 70 21.1 56 13.3 61 61 S 5 7 30.13 1020 10 16 0.00 0.00
7:56 pm 19:56 Cloudy 67 19.4 56 13.3 68 68 S 8 13 30.13 1020 10 16 0.00 0.00
8:56 pm 20:56 Mostly Cloudy 65 18.3 56 13.3 73 73 SSE 8 13 30.15 1021 9 14 0.00 0.00
9:56 pm 21:56 Mostly Cloudy 63 17.2 56 13.3 78 78 SSE 8 13 30.16 1021 10 16 0.00 0.00
10:56 pm 22:56 Mostly Cloudy 61 16.1 56 13.3 84 84 SE 9 15 30.15 1021 10 16 0.00 0.00
11:56 pm 23:56 Cloudy 60 15.6 56 13.3 86 86 SE 9 15 30.14 1021 10 16 0.00 0.00

Powered by AerisWeather